Year,Month,Day,Hour,Minute,Value (Times are PST for temperature in C)
2011,06,03,00,00,9.80
2011,06,03,00,01,9.80
2011,06,03,00,02,9.80
2011,06,03,00,03,9.80
2011,06,03,00,04,9.90
2011,06,03,00,05,9.80
2011,06,03,00,06,9.80
2011,06,03,00,07,9.80
2011,06,03,00,08,9.80
2011,06,03,00,09,9.80
2011,06,03,00,10,9.80
2011,06,03,00,11,9.80
2011,06,03,00,12,9.80
2011,06,03,00,18,9.70
2011,06,03,00,19,9.70
2011,06,03,00,20,9.60
2011,06,03,00,21,9.60
2011,06,03,00,22,9.60
2011,06,03,00,23,9.60
2011,06,03,00,24,9.60
2011,06,03,00,25,9.60
2011,06,03,00,26,9.60
2011,06,03,00,27,9.60
2011,06,03,00,28,9.60
2011,06,03,00,29,9.60
2011,06,03,00,30,9.60
2011,06,03,00,31,9.60
2011,06,03,00,32,9.60
2011,06,03,00,33,9.60
2011,06,03,00,34,9.60
2011,06,03,00,35,9.60
2011,06,03,00,36,9.60
2011,06,03,00,37,9.70
2011,06,03,00,38,9.70
2011,06,03,00,39,9.70
2011,06,03,00,40,9.70
2011,06,03,00,41,9.70
2011,06,03,00,42,9.70
2011,06,03,00,43,9.70
2011,06,03,00,44,9.70
2011,06,03,00,45,9.70
2011,06,03,00,46,9.70
2011,06,03,00,47,9.70
2011,06,03,00,48,9.70
2011,06,03,00,49,9.70
2011,06,03,00,50,9.70
2011,06,03,00,51,9.70
2011,06,03,00,52,9.80
2011,06,03,00,53,9.80
2011,06,03,00,54,9.80
2011,06,03,00,55,9.80
2011,06,03,00,56,9.80
2011,06,03,00,57,9.80
2011,06,03,00,58,9.80
2011,06,03,00,59,9.80
2011,06,03,01,00,9.80
2011,06,03,01,01,9.80
2011,06,03,01,02,9.80
2011,06,03,01,03,9.80
2011,06,03,01,04,9.80
2011,06,03,01,05,9.80
2011,06,03,01,06,9.80
2011,06,03,01,07,9.80
2011,06,03,01,08,9.80
2011,06,03,01,09,9.80
2011,06,03,01,10,9.80
2011,06,03,01,11,9.90
2011,06,03,01,12,9.90
2011,06,03,01,13,9.90
2011,06,03,01,14,9.90
2011,06,03,01,15,9.90
2011,06,03,01,16,9.90
2011,06,03,01,17,9.90
2011,06,03,01,18,9.90
2011,06,03,01,19,9.90
2011,06,03,01,20,9.90
2011,06,03,01,21,9.90
2011,06,03,01,22,10.00
2011,06,03,01,23,10.00
2011,06,03,01,24,10.00
2011,06,03,01,25,10.00
2011,06,03,01,26,10.00
2011,06,03,01,27,10.00
2011,06,03,01,28,10.00
2011,06,03,01,29,10.00
2011,06,03,01,30,10.10
2011,06,03,01,31,10.10
2011,06,03,01,32,10.10
2011,06,03,01,33,10.10
2011,06,03,01,34,10.10
2011,06,03,01,35,10.10
2011,06,03,01,36,10.10
2011,06,03,01,37,10.10
2011,06,03,01,38,10.10
2011,06,03,01,39,10.10
2011,06,03,01,40,10.10
2011,06,03,01,41,10.10
2011,06,03,01,42,10.10
2011,06,03,01,43,10.10
2011,06,03,01,44,10.10
2011,06,03,01,45,10.10
2011,06,03,01,46,10.10
2011,06,03,01,47,10.10
2011,06,03,01,48,10.10
2011,06,03,01,49,10.10
2011,06,03,01,50,10.10
2011,06,03,01,51,10.10
2011,06,03,01,52,10.10
2011,06,03,01,53,10.10
2011,06,03,01,54,10.10
2011,06,03,01,55,10.10
2011,06,03,01,56,10.10
2011,06,03,01,57,10.10
2011,06,03,01,58,10.10
2011,06,03,01,59,10.10
2011,06,03,02,00,10.10
2011,06,03,02,01,10.10
2011,06,03,02,02,10.10
2011,06,03,02,03,10.10
2011,06,03,02,04,10.10
2011,06,03,02,05,10.00
2011,06,03,02,06,10.00
2011,06,03,02,07,10.00
2011,06,03,02,08,10.00
2011,06,03,02,09,10.00
2011,06,03,02,10,10.00
2011,06,03,02,11,10.00
2011,06,03,02,12,10.00
2011,06,03,02,13,10.00
2011,06,03,02,14,9.90
2011,06,03,02,15,9.90
2011,06,03,02,16,9.90
2011,06,03,02,17,9.90
2011,06,03,02,18,9.90
2011,06,03,02,19,9.90
2011,06,03,02,20,9.90
2011,06,03,02,21,9.90
2011,06,03,02,22,9.80
2011,06,03,02,23,9.80
2011,06,03,02,24,9.80
2011,06,03,02,25,9.80
2011,06,03,02,26,9.80
2011,06,03,02,27,9.80
2011,06,03,02,28,9.80
2011,06,03,02,29,9.70
2011,06,03,02,30,9.70
2011,06,03,02,31,9.70
2011,06,03,02,32,9.70
2011,06,03,02,33,9.60
2011,06,03,02,34,9.60
2011,06,03,02,35,9.60
2011,06,03,02,36,9.60
2011,06,03,02,37,9.60
2011,06,03,02,38,9.60
2011,06,03,02,39,9.50
2011,06,03,02,40,9.50
2011,06,03,02,41,9.50
2011,06,03,02,42,9.40
2011,06,03,02,43,9.40
2011,06,03,02,44,9.40
2011,06,03,02,45,9.40
2011,06,03,02,46,9.40
2011,06,03,02,47,9.30
2011,06,03,02,48,9.30
2011,06,03,02,49,9.30
2011,06,03,02,50,9.30
2011,06,03,02,51,9.30
2011,06,03,02,52,9.30
2011,06,03,02,53,9.20
2011,06,03,02,54,9.20
2011,06,03,02,55,9.20
2011,06,03,02,56,9.20
2011,06,03,02,57,9.10
2011,06,03,02,58,9.10
2011,06,03,02,59,9.10
2011,06,03,03,00,9.10
2011,06,03,03,01,9.00
2011,06,03,03,02,9.00
2011,06,03,03,03,8.90
2011,06,03,03,04,8.90
2011,06,03,03,05,8.90
2011,06,03,03,06,8.90
2011,06,03,03,07,8.80
2011,06,03,03,08,8.80
2011,06,03,03,09,8.80
2011,06,03,03,10,8.80
2011,06,03,03,11,8.70
2011,06,03,03,12,8.70
2011,06,03,03,13,8.70
2011,06,03,03,14,8.70
2011,06,03,03,15,8.70
2011,06,03,03,16,8.60
2011,06,03,03,17,8.60
2011,06,03,03,18,8.60
2011,06,03,03,19,8.60
2011,06,03,03,20,8.60
2011,06,03,03,21,8.50
2011,06,03,03,22,8.50
2011,06,03,03,23,8.50
2011,06,03,03,24,8.40
2011,06,03,03,25,8.40
2011,06,03,03,26,8.40
2011,06,03,03,27,8.40
2011,06,03,03,28,8.40
2011,06,03,03,29,8.40
2011,06,03,03,30,8.40
2011,06,03,03,31,8.40
2011,06,03,03,32,8.40
2011,06,03,03,33,8.40
2011,06,03,03,34,8.40
2011,06,03,03,35,8.40
2011,06,03,03,36,8.40
2011,06,03,03,37,8.40
2011,06,03,03,38,8.30
2011,06,03,03,39,8.30
2011,06,03,03,40,8.30
2011,06,03,03,41,8.30
2011,06,03,03,42,8.30
2011,06,03,03,43,8.30
2011,06,03,03,44,8.30
2011,06,03,03,45,8.30
2011,06,03,03,46,8.30
2011,06,03,03,47,8.30
2011,06,03,03,48,8.30
2011,06,03,03,49,8.30
2011,06,03,03,50,8.30
2011,06,03,03,51,8.30
2011,06,03,03,52,8.30
2011,06,03,03,53,8.30
2011,06,03,03,54,8.30
2011,06,03,03,55,8.30
2011,06,03,03,56,8.30
2011,06,03,03,57,8.30
2011,06,03,03,58,8.30
2011,06,03,03,59,8.30
2011,06,03,04,00,8.40
2011,06,03,04,01,8.40
2011,06,03,04,02,8.40
2011,06,03,04,03,8.40
2011,06,03,04,04,8.40
2011,06,03,04,05,8.40
2011,06,03,04,06,8.40
2011,06,03,04,07,8.40
2011,06,03,04,08,8.40
2011,06,03,04,09,8.40
2011,06,03,04,10,8.40
2011,06,03,04,11,8.40
2011,06,03,04,12,8.40
2011,06,03,04,13,8.40
2011,06,03,04,14,8.40
2011,06,03,04,15,8.40
2011,06,03,04,16,8.40
2011,06,03,04,17,8.40
2011,06,03,04,18,8.40
2011,06,03,04,19,8.40
2011,06,03,04,20,8.40
2011,06,03,04,21,8.40
2011,06,03,04,22,8.40
2011,06,03,04,23,8.40
2011,06,03,04,24,8.40
2011,06,03,04,25,8.40
2011,06,03,04,26,8.40
2011,06,03,04,27,8.40
2011,06,03,04,28,8.50
2011,06,03,04,29,8.50
2011,06,03,04,30,8.50
2011,06,03,04,31,8.50
2011,06,03,04,32,8.50
2011,06,03,04,33,8.50
2011,06,03,04,34,8.50
2011,06,03,04,35,8.50
2011,06,03,04,36,8.50
2011,06,03,04,37,8.50
2011,06,03,04,38,8.50
2011,06,03,04,39,8.50
2011,06,03,04,40,8.50
2011,06,03,04,41,8.50
2011,06,03,04,42,8.50
2011,06,03,04,43,8.60
2011,06,03,04,44,8.60
2011,06,03,04,45,8.60
2011,06,03,04,46,8.60
2011,06,03,04,47,8.60
2011,06,03,04,48,8.60
2011,06,03,04,49,8.60
2011,06,03,04,50,8.60
2011,06,03,04,51,8.50
2011,06,03,04,52,8.60
2011,06,03,04,53,8.60
2011,06,03,04,54,8.60
2011,06,03,04,55,8.60
2011,06,03,04,56,8.60
2011,06,03,04,57,8.60
2011,06,03,04,58,8.60
2011,06,03,04,59,8.60
2011,06,03,05,00,8.60
2011,06,03,05,01,8.60
2011,06,03,05,02,8.60
2011,06,03,05,03,8.60
2011,06,03,05,04,8.60
2011,06,03,05,05,8.60
2011,06,03,05,06,8.60
2011,06,03,05,07,8.60
2011,06,03,05,08,8.60
2011,06,03,05,09,8.60
2011,06,03,05,10,8.60
2011,06,03,05,11,8.60
2011,06,03,05,12,8.60
2011,06,03,05,13,8.60
2011,06,03,05,14,8.60
2011,06,03,05,15,8.60
2011,06,03,05,16,8.60
2011,06,03,05,17,8.60
2011,06,03,05,18,8.60
2011,06,03,05,19,8.60
2011,06,03,05,20,8.60
2011,06,03,05,21,8.60
2011,06,03,05,22,8.60
2011,06,03,05,23,8.60
2011,06,03,05,24,8.60
2011,06,03,05,25,8.60
2011,06,03,05,26,8.60
2011,06,03,05,27,8.60
2011,06,03,05,28,8.60
2011,06,03,05,29,8.60
2011,06,03,05,30,8.60
2011,06,03,05,31,8.60
2011,06,03,05,32,8.60
2011,06,03,05,33,8.60
2011,06,03,05,34,8.60
2011,06,03,05,35,8.60
2011,06,03,05,36,8.60
2011,06,03,05,37,8.60
2011,06,03,05,38,8.60
2011,06,03,05,39,8.60
2011,06,03,05,40,8.60
2011,06,03,05,41,8.60
2011,06,03,05,42,8.60
2011,06,03,05,43,8.60
2011,06,03,05,44,8.60
2011,06,03,05,45,8.70
2011,06,03,05,46,8.70
2011,06,03,05,47,8.70
2011,06,03,05,48,8.70
2011,06,03,05,49,8.70
2011,06,03,05,50,8.70
2011,06,03,05,51,8.70
2011,06,03,05,52,8.70
2011,06,03,05,53,8.70
2011,06,03,05,54,8.70
2011,06,03,05,55,8.70
2011,06,03,05,56,8.80
2011,06,03,05,57,8.80
2011,06,03,05,58,8.80
2011,06,03,05,59,8.80
2011,06,03,06,00,8.80
2011,06,03,06,01,8.80
2011,06,03,06,02,8.80
2011,06,03,06,03,8.80
2011,06,03,06,04,8.80
2011,06,03,06,05,8.90
2011,06,03,06,06,8.90
2011,06,03,06,07,8.90
2011,06,03,06,08,8.90
2011,06,03,06,09,8.90
2011,06,03,06,10,8.90
2011,06,03,06,11,9.00
2011,06,03,06,12,9.00
2011,06,03,06,13,9.00
2011,06,03,06,14,9.10
2011,06,03,06,15,9.10
2011,06,03,06,16,9.10
2011,06,03,06,17,9.10
2011,06,03,06,18,9.10
2011,06,03,06,19,9.10
2011,06,03,06,20,9.20
2011,06,03,06,21,9.20
2011,06,03,06,22,9.20
2011,06,03,06,23,9.20
2011,06,03,06,24,9.20
2011,06,03,06,25,9.20
2011,06,03,06,26,9.30
2011,06,03,06,27,9.30
2011,06,03,06,28,9.30
2011,06,03,06,29,9.30
2011,06,03,06,30,9.30
2011,06,03,06,31,9.30
2011,06,03,06,32,9.30
2011,06,03,06,33,9.40
2011,06,03,06,34,9.40
2011,06,03,06,35,9.40
2011,06,03,06,36,9.40
2011,06,03,06,37,9.40
2011,06,03,06,38,9.40
2011,06,03,06,39,9.50
2011,06,03,06,40,9.50
2011,06,03,06,41,9.60
2011,06,03,06,42,9.60
2011,06,03,06,43,9.60
2011,06,03,06,44,9.60
2011,06,03,06,45,9.60
2011,06,03,06,46,9.60
2011,06,03,06,47,9.70
2011,06,03,06,48,9.70
2011,06,03,06,49,9.70
2011,06,03,06,50,9.70
2011,06,03,06,51,9.70
2011,06,03,06,52,9.80
2011,06,03,06,53,9.80
2011,06,03,06,54,9.80
2011,06,03,06,55,9.80
2011,06,03,06,56,9.80
2011,06,03,06,57,9.90
2011,06,03,06,58,9.90
2011,06,03,06,59,9.90
2011,06,03,07,00,9.90
2011,06,03,07,01,10.00
2011,06,03,07,02,10.00
2011,06,03,07,03,10.00
2011,06,03,07,04,10.00
2011,06,03,07,05,10.10
2011,06,03,07,06,10.10
2011,06,03,07,07,10.10
2011,06,03,07,08,10.10
2011,06,03,07,09,10.10
2011,06,03,07,10,10.10
2011,06,03,07,11,10.20
2011,06,03,07,12,10.20
2011,06,03,07,13,10.20
2011,06,03,07,14,10.20
2011,06,03,07,15,10.20
2011,06,03,07,16,10.20
2011,06,03,07,17,10.20
2011,06,03,07,18,10.30
2011,06,03,07,19,10.30
2011,06,03,07,20,10.30
2011,06,03,07,21,10.30
2011,06,03,07,22,10.30
2011,06,03,07,23,10.30
2011,06,03,07,24,10.30
2011,06,03,07,25,10.30
2011,06,03,07,26,10.40
2011,06,03,07,27,10.40
2011,06,03,07,28,10.40
2011,06,03,07,29,10.40
2011,06,03,07,30,10.40
2011,06,03,07,31,10.40
2011,06,03,07,32,10.50
2011,06,03,07,33,10.50
2011,06,03,07,34,10.50
2011,06,03,07,35,10.60
2011,06,03,07,36,10.60
2011,06,03,07,37,10.60
2011,06,03,07,38,10.70
2011,06,03,07,39,10.70
2011,06,03,07,40,10.70
2011,06,03,07,41,10.70
2011,06,03,07,42,10.80
2011,06,03,07,43,10.80
2011,06,03,07,44,10.80
2011,06,03,07,45,10.80
2011,06,03,07,46,10.80
2011,06,03,07,47,10.90
2011,06,03,07,48,10.90
2011,06,03,07,49,10.90
2011,06,03,07,50,11.00
2011,06,03,07,51,11.00
2011,06,03,07,52,11.00
2011,06,03,07,53,11.10
2011,06,03,07,54,11.10
2011,06,03,07,55,11.10
2011,06,03,07,56,11.10
2011,06,03,07,57,11.10
2011,06,03,07,58,11.10
2011,06,03,07,59,11.10
2011,06,03,08,00,11.20
2011,06,03,08,01,11.20
2011,06,03,08,02,11.20
2011,06,03,08,03,11.20
2011,06,03,08,04,11.20
2011,06,03,08,05,11.20
2011,06,03,08,06,11.20
2011,06,03,08,07,11.30
2011,06,03,08,08,11.30
2011,06,03,08,09,11.30
2011,06,03,08,10,11.30
2011,06,03,08,11,11.30
2011,06,03,08,12,11.40
2011,06,03,08,13,11.40
2011,06,03,08,14,11.40
2011,06,03,08,15,11.50
2011,06,03,08,16,11.50
2011,06,03,08,17,11.60
2011,06,03,08,18,11.60
2011,06,03,08,19,11.70
2011,06,03,08,20,11.70
2011,06,03,08,21,11.80
2011,06,03,08,22,11.80
2011,06,03,08,23,11.90
2011,06,03,08,24,11.90
2011,06,03,08,25,11.90
2011,06,03,08,26,11.90
2011,06,03,08,27,11.90
2011,06,03,08,28,12.00
2011,06,03,08,29,12.00
2011,06,03,08,30,12.10
2011,06,03,08,31,12.20
2011,06,03,08,32,12.20
2011,06,03,08,33,12.20
2011,06,03,08,34,12.20
2011,06,03,08,35,12.20
2011,06,03,08,36,12.30
2011,06,03,08,37,12.30
2011,06,03,08,38,12.30
2011,06,03,08,39,12.40
2011,06,03,08,40,12.40
2011,06,03,08,41,12.40
2011,06,03,08,42,12.50
2011,06,03,08,43,12.50
2011,06,03,08,44,12.60
2011,06,03,08,45,12.60
2011,06,03,08,46,12.70
2011,06,03,08,47,12.70
2011,06,03,08,48,12.70
2011,06,03,08,49,12.70
2011,06,03,08,50,12.70
2011,06,03,08,51,12.70
2011,06,03,08,52,12.70
2011,06,03,08,53,12.70
2011,06,03,08,54,12.70
2011,06,03,08,55,12.70
2011,06,03,08,56,12.70
2011,06,03,08,57,12.70
2011,06,03,08,58,12.70
2011,06,03,08,59,12.80
2011,06,03,09,00,12.80
2011,06,03,09,01,12.80
2011,06,03,09,02,12.70
2011,06,03,09,03,12.70
2011,06,03,09,04,12.70
2011,06,03,09,05,12.60
2011,06,03,09,06,12.60
2011,06,03,09,07,12.60
2011,06,03,09,08,12.60
2011,06,03,09,09,12.50
2011,06,03,09,10,12.50
2011,06,03,09,11,12.50
2011,06,03,09,12,12.50
2011,06,03,09,13,12.50
2011,06,03,09,14,12.40
2011,06,03,09,15,12.30
2011,06,03,09,16,12.30
2011,06,03,09,17,12.30
2011,06,03,09,18,12.30
2011,06,03,09,19,12.30
2011,06,03,09,20,12.30
2011,06,03,09,21,12.30
2011,06,03,09,22,12.30
2011,06,03,09,23,12.40
2011,06,03,09,24,12.40
2011,06,03,09,25,12.30
2011,06,03,09,26,12.30
2011,06,03,09,27,12.20
2011,06,03,09,28,12.20
2011,06,03,09,29,12.20
2011,06,03,09,30,12.20
2011,06,03,09,31,12.20
2011,06,03,09,32,12.20
2011,06,03,09,33,12.30
2011,06,03,09,34,12.30
2011,06,03,09,35,12.30
2011,06,03,09,36,12.40
2011,06,03,09,37,12.50
2011,06,03,09,38,12.50
2011,06,03,09,39,12.60
2011,06,03,09,40,12.60
2011,06,03,09,41,12.70
2011,06,03,09,42,12.70
2011,06,03,09,43,12.70
2011,06,03,09,44,12.70
2011,06,03,09,45,12.70
2011,06,03,09,46,12.70
2011,06,03,09,47,12.70
2011,06,03,09,48,12.70
2011,06,03,09,49,12.70
2011,06,03,09,50,12.60
2011,06,03,09,51,12.60
2011,06,03,09,52,12.60
2011,06,03,09,53,12.70
2011,06,03,09,54,12.70
2011,06,03,09,55,12.80
2011,06,03,09,56,12.80
2011,06,03,09,57,12.90
2011,06,03,09,58,13.00
2011,06,03,09,59,13.00
2011,06,03,10,00,13.10
2011,06,03,10,01,13.20
2011,06,03,10,02,13.20
2011,06,03,10,03,13.30
2011,06,03,10,04,13.30
2011,06,03,10,05,13.30
2011,06,03,10,06,13.30
2011,06,03,10,07,13.30
2011,06,03,10,08,13.30
2011,06,03,10,09,13.40
2011,06,03,10,10,13.40
2011,06,03,10,11,13.40
2011,06,03,10,12,13.40
2011,06,03,10,13,13.40
2011,06,03,10,14,13.30
2011,06,03,10,15,13.30
2011,06,03,10,16,13.30
2011,06,03,10,17,13.30
2011,06,03,10,18,13.30
2011,06,03,10,19,13.40
2011,06,03,10,20,13.60
2011,06,03,10,21,13.70
2011,06,03,10,22,13.90
2011,06,03,10,23,14.00
2011,06,03,10,24,14.10
2011,06,03,10,25,14.20
2011,06,03,10,26,14.20
2011,06,03,10,27,14.20
2011,06,03,10,28,14.20
2011,06,03,10,29,14.20
2011,06,03,10,30,14.20
2011,06,03,10,31,14.20
2011,06,03,10,32,14.20
2011,06,03,10,33,14.20
2011,06,03,10,34,14.20
2011,06,03,10,35,14.20
2011,06,03,10,36,14.20
2011,06,03,10,37,14.20
2011,06,03,10,38,14.20
2011,06,03,10,39,14.20
2011,06,03,10,40,14.20
2011,06,03,10,41,14.10
2011,06,03,10,42,14.10
2011,06,03,10,43,14.00
2011,06,03,10,44,14.00
2011,06,03,10,45,14.10
2011,06,03,10,46,14.20
2011,06,03,10,47,14.20
2011,06,03,10,48,14.30
2011,06,03,10,49,14.40
2011,06,03,10,50,14.50
2011,06,03,10,51,14.60
2011,06,03,10,52,14.60
2011,06,03,10,53,14.70
2011,06,03,10,54,14.80
2011,06,03,10,55,14.90
2011,06,03,10,56,15.00
2011,06,03,10,57,15.00
2011,06,03,10,58,15.00
2011,06,03,10,59,15.00
2011,06,03,11,00,15.00
2011,06,03,11,01,15.00
2011,06,03,11,02,15.00
2011,06,03,11,03,15.10
2011,06,03,11,04,15.20
2011,06,03,11,05,15.30
2011,06,03,11,06,15.40
2011,06,03,11,07,15.30
2011,06,03,11,08,15.20
2011,06,03,11,09,15.20
2011,06,03,11,10,15.30
2011,06,03,11,11,15.30
2011,06,03,11,12,15.40
2011,06,03,11,13,15.40
2011,06,03,11,14,15.50
2011,06,03,11,15,15.70
2011,06,03,11,16,15.80
2011,06,03,11,17,15.80
2011,06,03,11,18,15.80
2011,06,03,11,19,15.70
2011,06,03,11,20,15.60
2011,06,03,11,21,15.60
2011,06,03,11,22,15.60
2011,06,03,11,23,15.60
2011,06,03,11,24,15.60
2011,06,03,11,25,15.60
2011,06,03,11,26,15.60
2011,06,03,11,27,15.50
2011,06,03,11,28,15.60
2011,06,03,11,29,15.60
2011,06,03,11,30,15.60
2011,06,03,11,31,15.70
2011,06,03,11,32,15.80
2011,06,03,11,33,15.80
2011,06,03,11,34,15.80
2011,06,03,11,35,15.60
2011,06,03,11,36,15.60
2011,06,03,11,37,15.60
2011,06,03,11,38,15.60
2011,06,03,11,39,15.60
2011,06,03,11,40,15.60
2011,06,03,11,41,15.70
2011,06,03,11,42,15.60
2011,06,03,11,43,15.30
2011,06,03,11,44,15.10
2011,06,03,11,45,15.00
2011,06,03,11,46,15.00
2011,06,03,11,47,15.10
2011,06,03,11,48,15.40
2011,06,03,11,49,15.50
2011,06,03,11,50,15.70
2011,06,03,11,51,15.80
2011,06,03,11,52,15.90
2011,06,03,11,53,16.10
2011,06,03,11,54,16.20
2011,06,03,11,55,16.30
2011,06,03,11,56,16.30
2011,06,03,11,57,16.30
2011,06,03,11,58,16.30
2011,06,03,11,59,16.20
2011,06,03,12,00,16.20
2011,06,03,12,01,16.10
2011,06,03,12,02,16.00
2011,06,03,12,03,15.80
2011,06,03,12,04,15.80
2011,06,03,12,05,15.70
2011,06,03,12,06,15.60
2011,06,03,12,07,15.50
2011,06,03,12,08,15.60
2011,06,03,12,09,15.60
2011,06,03,12,10,15.60
2011,06,03,12,11,15.70
2011,06,03,12,12,15.70
2011,06,03,12,13,15.80
2011,06,03,12,14,15.80
2011,06,03,12,15,15.70
2011,06,03,12,16,15.80
2011,06,03,12,17,15.90
2011,06,03,12,18,16.10
2011,06,03,12,19,16.20
2011,06,03,12,20,16.30
2011,06,03,12,21,16.40
2011,06,03,12,22,16.60
2011,06,03,12,23,16.50
2011,06,03,12,24,16.50
2011,06,03,12,25,16.60
2011,06,03,12,26,16.70
2011,06,03,12,27,16.70
2011,06,03,12,28,16.70
2011,06,03,12,29,16.70
2011,06,03,12,30,16.60
2011,06,03,12,31,16.50
2011,06,03,12,32,16.30
2011,06,03,12,33,16.20
2011,06,03,12,34,16.10
2011,06,03,12,35,16.10
2011,06,03,12,36,16.10
2011,06,03,12,37,16.20
2011,06,03,12,38,16.30
2011,06,03,12,39,16.30
2011,06,03,12,40,16.40
2011,06,03,12,41,16.40
2011,06,03,12,42,16.40
2011,06,03,12,43,16.30
2011,06,03,12,44,16.30
2011,06,03,12,45,16.30
2011,06,03,12,46,16.30
2011,06,03,12,47,16.30
2011,06,03,12,48,16.20
2011,06,03,12,49,16.00
2011,06,03,12,50,15.80
2011,06,03,12,51,15.70
2011,06,03,12,52,15.70
2011,06,03,12,53,15.80
2011,06,03,12,54,15.90
2011,06,03,12,55,16.00
2011,06,03,12,56,16.10
2011,06,03,12,57,16.10
2011,06,03,12,58,16.00
2011,06,03,12,59,15.90
2011,06,03,13,00,16.00
2011,06,03,13,01,16.10
2011,06,03,13,02,16.30
2011,06,03,13,03,16.50
2011,06,03,13,04,16.50
2011,06,03,13,05,16.40
2011,06,03,13,06,16.40
2011,06,03,13,07,16.40
2011,06,03,13,08,16.40
2011,06,03,13,09,16.50
2011,06,03,13,10,16.60
2011,06,03,13,11,16.60
2011,06,03,13,12,16.50
2011,06,03,13,13,16.40
2011,06,03,13,14,16.40
2011,06,03,13,15,16.30
2011,06,03,13,16,16.40
2011,06,03,13,17,16.40
2011,06,03,13,18,16.60
2011,06,03,13,19,16.70
2011,06,03,13,20,16.90
2011,06,03,13,21,17.10
2011,06,03,13,22,17.20
2011,06,03,13,23,17.20
2011,06,03,13,24,17.10
2011,06,03,13,25,17.20
2011,06,03,13,26,17.30
2011,06,03,13,27,17.40
2011,06,03,13,28,17.40
2011,06,03,13,29,17.30
2011,06,03,13,30,17.10
2011,06,03,13,31,17.10
2011,06,03,13,32,17.00
2011,06,03,13,33,17.00
2011,06,03,13,34,17.10
2011,06,03,13,35,17.20
2011,06,03,13,36,17.40
2011,06,03,13,37,17.50
2011,06,03,13,38,17.60
2011,06,03,13,39,17.70
2011,06,03,13,40,17.60
2011,06,03,13,41,17.50
2011,06,03,13,42,17.40
2011,06,03,13,43,17.20
2011,06,03,13,44,17.20
2011,06,03,13,45,17.20
2011,06,03,13,46,17.30
2011,06,03,13,47,17.30
2011,06,03,13,48,17.40
2011,06,03,13,49,17.40
2011,06,03,13,50,17.40
2011,06,03,13,51,17.40
2011,06,03,13,52,17.50
2011,06,03,13,53,17.60
2011,06,03,13,54,17.60
2011,06,03,13,55,17.50
2011,06,03,13,56,17.40
2011,06,03,13,57,17.30
2011,06,03,13,58,17.30
2011,06,03,13,59,17.30
2011,06,03,14,00,17.20
2011,06,03,14,01,17.10
2011,06,03,14,02,17.00
2011,06,03,14,03,16.90
2011,06,03,14,04,16.80
2011,06,03,14,05,16.80
2011,06,03,14,06,16.80
2011,06,03,14,07,16.90
2011,06,03,14,08,17.00
2011,06,03,14,09,17.20
2011,06,03,14,10,17.20
2011,06,03,14,11,17.20
2011,06,03,14,12,17.20
2011,06,03,14,13,17.20
2011,06,03,14,14,17.20
2011,06,03,14,15,17.10
2011,06,03,14,16,17.20
2011,06,03,14,17,17.10
2011,06,03,14,18,17.10
2011,06,03,14,19,17.10
2011,06,03,14,20,17.20
2011,06,03,14,21,17.20
2011,06,03,14,22,17.10
2011,06,03,14,23,17.10
2011,06,03,14,24,17.00
2011,06,03,14,25,17.00
2011,06,03,14,26,17.00
2011,06,03,14,27,17.10
2011,06,03,14,28,17.10
2011,06,03,14,29,17.00
2011,06,03,14,30,17.00
2011,06,03,14,31,17.10
2011,06,03,14,32,17.20
2011,06,03,14,33,17.20
2011,06,03,14,34,17.30
2011,06,03,14,35,17.40
2011,06,03,14,36,17.50
2011,06,03,14,37,17.50
2011,06,03,14,38,17.60
2011,06,03,14,39,17.70
2011,06,03,14,40,17.70
2011,06,03,14,41,17.70
2011,06,03,14,42,17.70
2011,06,03,14,43,17.60
2011,06,03,14,44,17.50
2011,06,03,14,45,17.50
2011,06,03,14,46,17.40
2011,06,03,14,47,17.50
2011,06,03,14,48,17.60
2011,06,03,14,49,17.60
2011,06,03,14,50,17.80
2011,06,03,14,51,17.90
2011,06,03,14,52,18.10
2011,06,03,14,53,18.20
2011,06,03,14,54,18.30
2011,06,03,14,55,18.40
2011,06,03,14,56,18.50
2011,06,03,14,57,18.50
2011,06,03,14,58,18.60
2011,06,03,14,59,18.70
2011,06,03,15,00,18.80
2011,06,03,15,01,18.90
2011,06,03,15,02,18.80
2011,06,03,15,03,18.70
2011,06,03,15,04,18.60
2011,06,03,15,05,18.70
2011,06,03,15,06,18.60
2011,06,03,15,07,18.60
2011,06,03,15,08,18.50
2011,06,03,15,09,18.30
2011,06,03,15,10,18.20
2011,06,03,15,11,18.10
2011,06,03,15,12,18.10
2011,06,03,15,13,18.10
2011,06,03,15,14,18.10
2011,06,03,15,15,18.20
2011,06,03,15,16,18.30
2011,06,03,15,17,18.30
2011,06,03,15,18,18.40
2011,06,03,15,19,18.60
2011,06,03,15,20,18.70
2011,06,03,15,21,18.90
2011,06,03,15,22,19.10
2011,06,03,15,23,19.30
2011,06,03,15,24,19.30
2011,06,03,15,25,19.30
2011,06,03,15,26,19.30
2011,06,03,15,27,19.30
2011,06,03,15,28,19.20
2011,06,03,15,29,19.10
2011,06,03,15,30,18.90
2011,06,03,15,31,18.90
2011,06,03,15,32,18.90
2011,06,03,15,33,18.90
2011,06,03,15,34,18.90
2011,06,03,15,35,19.00
2011,06,03,15,36,19.10
2011,06,03,15,37,19.10
2011,06,03,15,38,19.20
2011,06,03,15,39,19.20
2011,06,03,15,40,19.10
2011,06,03,15,41,19.10
2011,06,03,15,42,19.10
2011,06,03,15,43,19.10
2011,06,03,15,44,19.20
2011,06,03,15,45,19.10
2011,06,03,15,46,19.10
2011,06,03,15,47,19.10
2011,06,03,15,48,19.10
2011,06,03,15,49,19.10
2011,06,03,15,50,19.10
2011,06,03,15,51,19.20
2011,06,03,15,52,19.30
2011,06,03,15,53,19.30
2011,06,03,15,54,19.30
2011,06,03,15,55,19.20
2011,06,03,15,56,19.10
2011,06,03,15,57,19.10
2011,06,03,15,58,19.10
2011,06,03,15,59,19.20
2011,06,03,16,00,19.30
2011,06,03,16,01,19.30
2011,06,03,16,02,19.20
2011,06,03,16,03,19.20
2011,06,03,16,04,19.20
2011,06,03,16,05,19.30
2011,06,03,16,06,19.40
2011,06,03,16,07,19.40
2011,06,03,16,08,19.30
2011,06,03,16,09,19.20
2011,06,03,16,10,19.20
2011,06,03,16,11,19.20
2011,06,03,16,12,19.10
2011,06,03,16,13,19.10
2011,06,03,16,14,19.00
2011,06,03,16,15,19.00
2011,06,03,16,16,19.00
2011,06,03,16,17,18.90
2011,06,03,16,18,18.80
2011,06,03,16,19,18.70
2011,06,03,16,20,18.70
2011,06,03,16,21,18.80
2011,06,03,16,22,18.80
2011,06,03,16,23,18.90
2011,06,03,16,24,18.90
2011,06,03,16,25,18.90
2011,06,03,16,26,18.90
2011,06,03,16,27,18.90
2011,06,03,16,28,19.00
2011,06,03,16,29,19.00
2011,06,03,16,30,18.90
2011,06,03,16,31,19.00
2011,06,03,16,32,19.00
2011,06,03,16,33,19.10
2011,06,03,16,34,19.10
2011,06,03,16,35,19.10
2011,06,03,16,36,19.10
2011,06,03,16,37,19.10
2011,06,03,16,38,19.00
2011,06,03,16,39,18.90
2011,06,03,16,40,18.90
2011,06,03,16,41,18.90
2011,06,03,16,42,18.90
2011,06,03,16,43,19.00
2011,06,03,16,44,19.10
2011,06,03,16,45,19.10
2011,06,03,16,46,19.20
2011,06,03,16,47,19.10
2011,06,03,16,48,19.20
2011,06,03,16,49,19.20
2011,06,03,16,50,19.20
2011,06,03,16,51,19.20
2011,06,03,16,52,19.30
2011,06,03,16,53,19.40
2011,06,03,16,54,19.50
2011,06,03,16,55,19.60
2011,06,03,16,56,19.60
2011,06,03,16,57,19.60
2011,06,03,16,58,19.60
2011,06,03,16,59,19.60
2011,06,03,17,00,19.60
2011,06,03,17,01,19.60
2011,06,03,17,02,19.60
2011,06,03,17,03,19.60
2011,06,03,17,04,19.70
2011,06,03,17,05,19.60
2011,06,03,17,06,19.60
2011,06,03,17,07,19.60
2011,06,03,17,08,19.70
2011,06,03,17,09,19.70
2011,06,03,17,10,19.80
2011,06,03,17,11,19.80
2011,06,03,17,12,19.80
2011,06,03,17,13,19.80
2011,06,03,17,14,19.80
2011,06,03,17,15,19.80
2011,06,03,17,16,19.80
2011,06,03,17,17,19.70
2011,06,03,17,18,19.60
2011,06,03,17,19,19.50
2011,06,03,17,20,19.50
2011,06,03,17,21,19.40
2011,06,03,17,22,19.40
2011,06,03,17,23,19.30
2011,06,03,17,24,19.20
2011,06,03,17,25,19.30
2011,06,03,17,26,19.30
2011,06,03,17,27,19.30
2011,06,03,17,28,19.40
2011,06,03,17,29,19.40
2011,06,03,17,30,19.40
2011,06,03,17,31,19.40
2011,06,03,17,32,19.40
2011,06,03,17,33,19.40
2011,06,03,17,34,19.40
2011,06,03,17,35,19.40
2011,06,03,17,36,19.40
2011,06,03,17,37,19.50
2011,06,03,17,38,19.50
2011,06,03,17,39,19.50
2011,06,03,17,40,19.40